Location: Newark
(43.3746°N, 5.6066°E)
Time: 20:37:47
(UTC+00:00)

N. Korean satellite - Visible Passes

Search period start: 09 December 2019 00:00
Search period end: 19 December 2019 00:00
Orbit: 456 x 506 km, 97.2° (Epoch: 09 December)

Date Brightness Start Highest point End Pass type
(mag) Time Alt. Az. Time Alt. Az. Time Alt. Az.
09 Dec 6.7 05:28:14 10° NNE 05:31:48 75° ESE 05:35:16 10° S visible
09 Dec 9.8 17:38:51 10° SW 17:41:22 17° W 17:43:53 10° NW visible
10 Dec 8.3 05:03:03 10° NNE 05:06:18 33° E 05:09:29 10° SSE visible
10 Dec 8.6 17:12:24 10° SSW 17:15:48 33° W 17:19:12 10° NNW visible
11 Dec 9.6 04:38:23 10° NE 04:40:42 17° E 04:43:00 10° SE visible
11 Dec 7.3 06:11:05 10° N 06:14:10 29° WNW 06:17:13 10° SW visible
11 Dec 6.9 16:46:37 10° S 16:50:19 72° WSW 16:54:01 10° NNW visible
12 Dec 6.4 05:45:21 10° N 05:48:50 62° WNW 05:52:15 10° SSW visible
12 Dec 10.2 17:57:41 10° WSW 17:58:36 11° W 17:59:31 10° WNW visible
13 Dec 7.1 05:19:56 10° NNE 05:23:24 57° E 05:26:48 10° S visible
13 Dec 9.4 17:30:05 10° SW 17:32:58 21° W 17:35:50 10° NW visible
14 Dec 8.8 04:54:52 10° NE 04:57:52 26° E 05:00:50 10° SSE visible
14 Dec 8.0 17:03:53 10° S 17:07:25 42° W 17:10:56 10° NNW visible
15 Dec 9.9 04:30:32 10° ENE 04:32:15 13° E 04:33:57 10° ESE visible
15 Dec 7.0 06:02:34 10° N 06:05:49 36° WNW 06:09:00 10° SW visible
15 Dec 6.6 16:38:15 10° SSE 16:41:57 89° ENE 16:45:38 10° NNW visible
16 Dec 6.3 05:36:56 10° N 05:40:27 81° WNW 05:43:52 10° SSW visible
16 Dec 10.0 17:48:18 10° WSW 17:50:09 13° W 17:52:00 10° WNW visible
17 Dec 7.7 05:11:37 10° NNE 05:14:58 44° E 05:18:16 10° S visible
17 Dec 9.1 17:21:25 10° SSW 17:24:32 26° W 17:27:39 10° NW visible
18 Dec 9.2 04:46:43 10° NE 04:49:25 21° E 04:52:04 10° SE visible
18 Dec 7.6 06:19:58 10° NNW 06:22:44 23° WNW 06:25:29 10° WSW visible
18 Dec 7.5 16:55:25 10° S 16:59:00 54° W 17:02:36 10° NNW visible
